This is the latest recevied weather packets stored in our database for station/object K4FDS. If no packets are shown the sender has not sent any weather packets the latest 10 day(s).
| Time | Temp. | Humidity | Pressure | Rain* | Wind** | Luminosity | Snow |
|---|---|---|---|---|---|---|---|
| 1777933165 | 23.89° C | 41% | 1006.3 hPa | 0 mm | 0.45 m/s, 224° | - | - |
| 1777931365 | 23.89° C | 41% | 1006.3 hPa | 0 mm | 0.45 m/s, 224° | - | - |
| 1777929565 | 24.44° C | 41% | 1006.1 hPa | 0 mm | 0.45 m/s, 256° | - | - |
| 1777927765 | 23.33° C | 44% | 1006.4 hPa | 0 mm | 0.45 m/s, 224° | - | - |
| 1777925965 | 23.33° C | 43% | 1006.7 hPa | 0 mm | 0.45 m/s, 222° | - | - |
| 1777924165 | 22.78° C | 43% | 1007.2 hPa | 0 mm | 0.45 m/s, 244° | - | - |
| 1777922365 | 22.78° C | 43% | 1007.2 hPa | 0 mm | 0.45 m/s, 244° | - | - |
| 1777920565 | 16.11° C | 47% | 1010.7 hPa | 0 mm | 0.89 m/s, 240° | - | - |
| 1777918765 | 16.11° C | 47% | 1010.7 hPa | 0 mm | 0.89 m/s, 240° | - | - |
| 1777916965 | 16.11° C | 47% | 1010.7 hPa | 0 mm | 0.89 m/s, 240° | - | - |
| 1777915165 | 16.11° C | 47% | 1010.7 hPa | 0 mm | 0.89 m/s, 240° | - | - |
| 1777913365 | 16.11° C | 47% | 1010.7 hPa | 0 mm | 0.89 m/s, 240° | - | - |
| 1777911565 | 16.11° C | 47% | 1010.7 hPa | 0 mm | 0.89 m/s, 240° | - | - |
| 1777909765 | 16.11° C | 47% | 1010.7 hPa | 0 mm | 0.89 m/s, 240° | - | - |
| 1777907965 | 16.11° C | 47% | 1010.7 hPa | 0 mm | 0.89 m/s, 240° | - | - |
| 1777906165 | 16.11° C | 47% | 1010.7 hPa | 0 mm | 0.89 m/s, 240° | - | - |
| 1777904365 | 16.11° C | 47% | 1010.7 hPa | 0 mm | 0.89 m/s, 240° | - | - |
| 1777902565 | 15° C | 51% | 1010.6 hPa | 0 mm | 0.89 m/s, 262° | - | - |
| 1777900765 | 14.44° C | 54% | 1011 hPa | 0 mm | 0.45 m/s, 271° | - | - |
| 1777898965 | 12.22° C | 65% | 1011.3 hPa | 0 mm | 0 m/s | - | - |
| 1777897165 | 8.89° C | 74% | 1012.1 hPa | 0 mm | 0.45 m/s, 31° | - | - |
| 1777895365 | 7.78° C | 79% | 1012.5 hPa | 0 mm | 0 m/s | - | - |
| 1777893565 | 7.78° C | 78% | 1012.7 hPa | 0 mm | 0 m/s | - | - |
| 1777891765 | 7.78° C | 79% | 1012.6 hPa | 0 mm | 0 m/s | - | - |
| 1777889965 | 8.33° C | 73% | 1012.2 hPa | 0 mm | 0 m/s | - | - |
* Rain latest hour (hover to see other rain measurements)
** Current wind speed in m/s (hover to see current wind gust speed)